Location: PSU-Greenbush Astrophysical Observatory
(37.5140°N, 94.9880°W)
Time: 14:34:03
(UTC-06:00)

Vanguard 1 Rocket - Visible Passes

Search period start: 26 January 2020 00:00
Search period end: 05 February 2020 00:00
Orbit: 650 x 4226 km, 34.3° (Epoch: 25 January)

Date Brightness Start Highest point End Pass type
(mag) Time Alt. Az. Time Alt. Az. Time Alt. Az.
27 Jan 12.4 18:12:57 10° WSW 18:24:36 16° SW 18:37:28 10° SSW visible
29 Jan 12.5 18:23:29 10° SW 18:27:00 10° SW 18:30:37 10° SW visible
31 Jan 10.0 06:11:04 10° SSE 06:12:17 11° SE 06:13:34 10° ESE visible
02 Feb 9.4 06:12:00 10° S 06:14:52 16° SE 06:18:16 10° ESE visible
04 Feb 9.1 06:14:04 10° SSW 06:17:35 22° SSE 06:21:53 10° E visible
